Location: Doverdale
(52.2833°N, 2.2000°W)
Time: 12:22:09
(UTC+00:00)

Okean-O - Pass Details

Date: 29 October 2020
Orbit: 638 x 641 km, 98.2° (Epoch: 24 November)

Event Time Altitude Azimuth Distance (km) Brightness Sun altitude
Rises 18:00:32 0° 150° (SSE) 2,938 5.8 -12.1°
Reaches altitude 10° 18:02:46 10° 146° (SE) 2,032 4.9 -12.4°
Maximum altitude 18:07:05 55° 69° (ENE) 779 2.7 -13.1°
Drops below altitude 10° 18:11:26 10° 353° (N) 2,046 5.3 -13.7°
Sets 18:13:40 0° 349° (N) 2,960 6.1 -14.1°
